510  
NZUS99 KTBW 250515  
RWRTPA  
FLORIDA REGIONAL WEATHER ROUNDUP  
NATIONAL WEATHER SERVICE TAMPA BAY RUSKIN FL  
1200 AM EST SUN FEB 25 2018  
 
NOTE: "FAIR" INDICATES FEW OR NO CLOUDS BELOW 12,000 FEET WITH NO  
SIGNIFICANT WEATHER AND/OR S TO VISIBILITY
.  
 
 
STATION/POSITION
 
 
 
FLZ042-048>051-055-056-060-061-250600-  
EXTRA STATIONS  
 
CITY SKY/WX TMP DP RH WIND PRES REMARKS
 
EVERGLADES CTY NOT AVBL  
CRYSTAL RIVER CLOUDY 68 64 88 CALM 30.18R  
SEBRING FAIR 73 67 79 S9 30.16S  
EGLIN AFB LGT RAIN 71 69 93 S8 30.09F  
CANAVERAL FAIR 72 67 84 S10 30.16S  
 

 
FLZ001>010-012>015-250600-  
PANHANDLE FLORIDA  
 
CITY SKY/WX TMP DP RH WIND PRES REMARKS
 
PENSACOLA CLOUDY 73 69 87 S10 30.09S  
MILTON NAS CLOUDY 70 69 97 S8 30.09  
CRESTVIEW CLOUDY 71 68 90 S6 30.11F  
VALPARAISO CLOUDY 71 70 98 SE10 30.09S  
MARY ESTHER MOCLDY 71 70 96 SE8 30.09S  
PANAMA CITY CLOUDY 71 68 90 SE9 30.11F  
TYNDALL AFB FAIR 66 66 100 SE6 30.12F  
APALACHICOLA CLOUDY 70 70 100 SE5 30.13S  
 
STATION/POSITION
 
 
29.2N 88.2W  
28.8N 86.0W  
 

 
FLZ011-016>039-250600-  
NORTH FLORIDA  
 
CITY SKY/WX TMP DP RH WIND PRES REMARKS
 
MARIANNA FAIR 67 64 90 S6 30.12S  
TALLAHASSEE CLOUDY 68 66 93 S6 30.14F  
PERRY FOG 62 61 97 CALM 30.16S VSB 1/2  
CROSS CITY CLOUDY 64 N/A N/A CALM 30.20S  
GAINESVILLE CLOUDY 68 64 87 CALM 30.20R  
MAYPORT NAS CLOUDY 71 65 81 SW7 30.17R  
JACKSONVILLE MOCLDY 69 65 86 S5 30.17S  
JAX NAS MOCLDY 73 64 73 S6 30.18R  
JAX CRAIG CLOUDY 72 66 81 SW7 30.18R  
ST AUGUSTINE CLOUDY 70 64 81 SW6 30.19R  
 
STATION/POSITION
 
 
KEATON BEACH  
31.4N 80.9W  
ST AUGUSTINE  
 

 
FLZ040-043>046-052-053-057-058-063-250600-  
CENTRAL FLORIDA  
 
CITY SKY/WX TMP DP RH WIND PRES REMARKS
 
OCALA CLOUDY 69 65 86 CALM 30.18S  
LEESBURG FAIR 73 66 78 S8 30.19R  
SANFORD FAIR 70 66 87 S8 30.18R  
ORLANDO EXEC FAIR 69 66 90 SE7 30.18R  
ORLANDO INTL FAIR 67 65 93 SE6 30.18S  
KISSIMMEE FAIR 69 65 86 S6 30.19R  
WINTER HAVEN FAIR 70 65 84 E3 30.19R  
BARTOW CLOUDY 68 64 88 CALM 30.19R  
 

 
FLZ041-047-054-059-064-250600-  
EAST CENTRAL FLORIDA  
 
CITY SKY/WX TMP DP RH WIND PRES REMARKS
 
DAYTONA BEACH FAIR 66 64 93 CALM 30.18R  
JFK SPACE CTR FAIR 70 70 100 CALM 30.17R  
PATRICK AFB FAIR 73 70 88 S10 N/A  
MELBOURNE FAIR 73 67 81 S6 30.16S  
VERO BEACH FAIR 73 68 84 SE13 30.17S  
FT PIERCE FAIR 72 69 90 SE10 30.17S  
STUART FAIR 73 66 78 SE6 30.18S  
 
STATION/POSITION
 
 

 
FLZ042-048>051-055-056-060-061-250600-  
WEST CENTRAL FLORIDA  
 
CITY SKY/WX TMP DP RH WIND PRES REMARKS
 
BROOKSVILLE CLOUDY 67 64 90 CALM 30.18S  
MACDILL AFB MOCLDY 72 69 92 CALM 30.16S  
ST PETERSBURG CLOUDY 72 69 90 CALM 30.16S  
ST PET-WHITTED CLOUDY 74 68 81 S5 30.15R  
SARASOTA CLOUDY 72 68 87 CALM 30.15R  
 
STATION/POSITION
 
 
CEDAR KEY  
VENICE  
 

 
FLZ062-065-066-069-070-075>078-250600-  
SOUTHWEST FLORIDA AND KEYS  
 
CITY SKY/WX TMP DP RH WIND PRES REMARKS
 
PUNTA GORDA CLOUDY 73 66 78 SE5 30.17S  
FT MYERS FAIR 70 66 87 CALM 30.15S  
SOUTHWEST INTL FAIR 69 67 93 SE6 30.15F  
NAPLES FAIR 70 67 90 E5 30.15S  
MARATHON FAIR 76 66 71 SE12G20 30.13F  
KEY WEST NAS FAIR 75 68 78 E14 30.14S  
KEY WEST INTL FAIR 77 69 76 E15 30.14S  
 
STATION/POSITION
 
 
VENICE  
SAND KEY  
MOLASSES REEF  
 

 
FLZ067-068-071>074-250600-  
SOUTHEAST FLORIDA  
 
CITY SKY/WX TMP DP RH WIND PRES REMARKS
 
W PALM BEACH FAIR 75 66 73 SE12 30.17S  
POMPANO BEACH FAIR 76 69 79 SE14 30.16F  
FT LAUDER-EXEC FAIR 75 68 78 SE12 30.16F  
FT LAUDERDALE FAIR 75 70 84 SE14 30.16S  
PEMBROKE PINES MOCLDY 75 68 78 S9 30.18S  
OPA LOCKA MOCLDY 73 68 84 S12 30.17S  
MIAMI LGT RAIN 71 68 90 SE6 30.17F  
WEST KENDALL CLOUDY 71 67 87 E7 30.17S  
HOMESTEAD FAIR 74 68 81 E8 30.15F  
 
STATION/POSITION
 
 
LAKE WORTH  
FOWEY ROCKS  
SETTLEMENT POINT  
 

 
 
 
CLICK HERE TO GO TO PREVIOUS BULLETINS.

The Nexlab FL Page Main Text Page